| time (UTC) | temp F | wind direction | speed MPH | gust MPH | rain 1hr in | rain 24hr in | rain mn in | humidity % | barometer mb |
| 20260505093959 | 56 | 96 | 2.0 | 3.0 | 0.00 | 0.00 | 0.00 | 74 | 1007.9 |
| 20260505093456 | 56 | 96 | 2.0 | 3.0 | 0.00 | 0.00 | 0.00 | 73 | 1007.9 |
| 20260505092958 | 56 | 123 | 2.0 | 3.0 | 0.00 | 0.00 | 0.00 | 74 | 1007.9 |
| 20260505091957 | 56 | 96 | 2.0 | 3.0 | 0.00 | 0.00 | 0.00 | 74 | 1007.8 |
| 20260505091456 | 56 | 95 | 1.0 | 2.0 | 0.00 | 0.00 | 0.00 | 74 | 1007.8 |
| 20260505090956 | 56 | 95 | 0.0 | 3.0 | 0.00 | 0.00 | 0.00 | 73 | 1007.7 |
| 20260505090456 | 57 | 95 | 2.0 | 5.0 | 0.00 | 0.00 | 0.00 | 72 | 1007.7 |
| 20260505085959 | 57 | 95 | 3.0 | 5.0 | 0.00 | 0.00 | 0.00 | 72 | 1007.7 |
| 20260505085456 | 58 | 107 | 2.0 | 3.0 | 0.00 | 0.00 | 0.00 | 70 | 1007.7 |
| 20260505084957 | 58 | 98 | 2.0 | 3.0 | 0.00 | 0.00 | 0.00 | 70 | 1007.6 |
| 20260505084457 | 58 | 136 | 1.0 | 3.0 | 0.00 | 0.00 | 0.00 | 70 | 1007.5 |
| 20260505083457 | 59 | 129 | 2.0 | 4.0 | 0.00 | 0.00 | 0.00 | 69 | 1007.5 |
| 20260505082957 | 59 | 117 | 3.0 | 6.0 | 0.00 | 0.00 | 0.00 | 68 | 1007.5 |
| 20260505082456 | 60 | 126 | 3.0 | 8.0 | 0.00 | 0.00 | 0.00 | 68 | 1007.5 |
| 20260505081958 | 60 | 128 | 4.0 | 8.0 | 0.00 | 0.00 | 0.00 | 68 | 1007.5 |
| 20260505081456 | 60 | 145 | 3.0 | 6.0 | 0.00 | 0.00 | 0.00 | 69 | 1007.4 |
| 20260505080957 | 60 | 136 | 4.0 | 7.0 | 0.00 | 0.00 | 0.00 | 68 | 1007.4 |
| 20260505080458 | 60 | 136 | 4.0 | 6.0 | 0.00 | 0.00 | 0.00 | 68 | 1007.3 |
| 20260505075457 | 58 | 180 | 2.0 | 3.0 | 0.00 | 0.00 | 0.00 | 72 | 1007.2 |
| 20260505074457 | 58 | 132 | 2.0 | 3.0 | 0.00 | 0.00 | 0.00 | 72 | 1007.3 |
| 20260505073958 | 58 | 143 | 1.0 | 2.0 | 0.00 | 0.00 | 0.00 | 73 | 1007.3 |
| 20260505073457 | 58 | 86 | 1.0 | 1.0 | 0.00 | 0.00 | 0.00 | 73 | 1007.1 |
| 20260505072957 | 58 | 86 | 0.0 | 1.0 | 0.00 | 0.00 | 0.00 | 73 | 1007.0 |
| 20260505072457 | 57 | 86 | 0.0 | 0.0 | 0.00 | 0.00 | 0.00 | 74 | 1006.9 |
| 20260505071957 | 57 | 86 | 0.0 | 0.0 | 0.00 | 0.00 | 0.00 | 74 | 1006.8 |
| 20260505071500 | 57 | 86 | 0.0 | 0.0 | 0.00 | 0.00 | 0.00 | 73 | 1006.7 |
| 20260505071000 | 58 | 86 | 0.0 | 0.0 | 0.00 | 0.00 | 0.00 | 72 | 1006.7 |
| 20260505070459 | 58 | 86 | 0.0 | 1.0 | 0.00 | 0.00 | 0.00 | 72 | 1006.6 |
| 20260505070000 | 58 | 86 | 0.0 | 1.0 | 0.00 | 0.00 | 0.00 | 72 | 1006.5 |
| 20260505065458 | 58 | 86 | 0.0 | 0.0 | 0.00 | 0.00 | 0.00 | 70 | 1006.4 |
| 20260505065000 | 58 | 86 | 0.0 | 0.0 | 0.00 | 0.00 | 0.00 | 69 | 1006.4 |
| 20260505064459 | 59 | 86 | 0.0 | 1.0 | 0.00 | 0.00 | 0.00 | 69 | 1006.3 |
| 20260505064003 | 59 | 86 | 0.0 | 1.0 | 0.00 | 0.00 | 0.00 | 70 | 1006.3 |
| 20260505063500 | 60 | 86 | 0.0 | 0.0 | 0.00 | 0.00 | 0.00 | 68 | 1006.3 |
| 20260505063000 | 60 | 86 | 0.0 | 2.0 | 0.00 | 0.00 | 0.00 | 67 | 1006.3 |
| 20260505062000 | 60 | 86 | 0.0 | 1.0 | 0.00 | 0.00 | 0.00 | 68 | 1006.3 |
| 20260505061500 | 61 | 86 | 0.0 | 2.0 | 0.00 | 0.00 | 0.00 | 65 | 1006.3 |
| 20260505061000 | 61 | 86 | 0.0 | 2.0 | 0.00 | 0.00 | 0.00 | 65 | 1006.2 |
| 20260505060500 | 61 | 86 | 1.0 | 1.0 | 0.00 | 0.00 | 0.00 | 65 | 1006.2 |
| 20260505060000 | 62 | 86 | 0.0 | 1.0 | 0.00 | 0.00 | 0.00 | 64 | 1006.1 |
| 20260505055459 | 62 | 86 | 0.0 | 1.0 | 0.00 | 0.00 | 0.00 | 62 | 1006.1 |
| 20260505055000 | 63 | 81 | 0.0 | 0.0 | 0.00 | 0.00 | 0.00 | 63 | 1006.1 |
| 20260505054458 | 62 | 81 | 0.0 | 1.0 | 0.00 | 0.00 | 0.00 | 63 | 1006.0 |
| 20260505053959 | 63 | 81 | 0.0 | 2.0 | 0.00 | 0.00 | 0.00 | 63 | 1006.0 |
| 20260505053459 | 63 | 81 | 1.0 | 5.0 | 0.00 | 0.00 | 0.00 | 62 | 1006.0 |
| 20260505053000 | 64 | 76 | 2.0 | 5.0 | 0.00 | 0.00 | 0.00 | 62 | 1006.0 |
| 20260505052458 | 64 | 74 | 3.0 | 5.0 | 0.00 | 0.00 | 0.00 | 62 | 1006.1 |
| 20260505051959 | 64 | 88 | 3.0 | 8.0 | 0.00 | 0.00 | 0.00 | 62 | 1006.1 |
| 20260505051458 | 64 | 63 | 4.0 | 8.0 | 0.00 | 0.00 | 0.00 | 62 | 1006.0 |
| 20260505050959 | 64 | 83 | 3.0 | 6.0 | 0.00 | 0.00 | 0.00 | 61 | 1006.0 |
| 20260505041507 | 66 | 84 | 3.0 | 5.0 | 0.00 | 0.00 | 0.00 | 60 | 1006.0 |
| 20260505040459 | 67 | 98 | 4.0 | 7.0 | 0.00 | 0.00 | 0.00 | 59 | 1006.0 |
| 20260505040004 | 67 | 102 | 4.0 | 7.0 | 0.00 | 0.00 | 0.00 | 61 | 1005.9 |
| 20260505034959 | 67 | 81 | 4.0 | 8.0 | 0.00 | 0.00 | 0.00 | 60 | 1005.8 |
| 20260505034458 | 68 | 84 | 5.0 | 8.0 | 0.00 | 0.00 | 0.00 | 59 | 1005.8 |
| 20260505033958 | 69 | 110 | 3.0 | 6.0 | 0.00 | 0.00 | 0.00 | 59 | 1005.7 |
| 20260505033458 | 69 | 115 | 4.0 | 5.0 | 0.00 | 0.00 | 0.00 | 58 | 1005.7 |
| 20260505032959 | 70 | 87 | 4.0 | 7.0 | 0.00 | 0.00 | 0.00 | 57 | 1005.6 |
| 20260505031959 | 71 | 110 | 5.0 | 7.0 | 0.00 | 0.00 | 0.00 | 54 | 1005.5 |
| 20260505030959 | 73 | 83 | 3.0 | 5.0 | 0.00 | 0.00 | 0.00 | 50 | 1005.3 |
| 20260505030459 | 74 | 110 | 2.0 | 3.0 | 0.00 | 0.00 | 0.00 | 48 | 1005.2 |
| 20260505025959 | 74 | 112 | 2.0 | 3.0 | 0.00 | 0.00 | 0.00 | 46 | 1005.2 |
| 20260505025458 | 75 | 112 | 2.0 | 3.0 | 0.00 | 0.00 | 0.00 | 45 | 1005.2 |
| 20260505024000 | 76 | 107 | 1.0 | 3.0 | 0.00 | 0.00 | 0.00 | 43 | 1005.1 |
| 20260505022959 | 78 | 111 | 2.0 | 4.0 | 0.00 | 0.00 | 0.00 | 40 | 1005.1 |
| 20260505022005 | 79 | 111 | 2.0 | 4.0 | 0.00 | 0.00 | 0.00 | 37 | 1005.1 |
| 20260505021458 | 79 | 134 | 2.0 | 4.0 | 0.00 | 0.00 | 0.00 | 36 | 1005.1 |
| 20260505021001 | 79 | 136 | 3.0 | 4.0 | 0.00 | 0.00 | 0.00 | 35 | 1005.2 |
| 20260505020458 | 80 | 135 | 2.0 | 4.0 | 0.00 | 0.00 | 0.00 | 34 | 1005.1 |
| 20260505020007 | 80 | 174 | 3.0 | 4.0 | 0.00 | 0.00 | 0.00 | 34 | 1005.2 |
| 20260505015459 | 80 | 190 | 2.0 | 6.0 | 0.00 | 0.00 | 0.00 | 34 | 1005.2 |
| 20260505015005 | 80 | 178 | 2.0 | 5.0 | 0.00 | 0.00 | 0.00 | 34 | 1005.3 |
| 20260505014004 | 81 | 174 | 2.0 | 6.0 | 0.00 | 0.00 | 0.00 | 34 | 1005.4 |
| 20260505013458 | 81 | 165 | 3.0 | 6.0 | 0.00 | 0.00 | 0.00 | 33 | 1005.5 |
| 20260505013000 | 81 | 159 | 3.0 | 6.0 | 0.00 | 0.00 | 0.00 | 33 | 1005.5 |
| 20260505012458 | 81 | 169 | 3.0 | 6.0 | 0.00 | 0.00 | 0.00 | 32 | 1005.5 |
| 20260505012001 | 81 | 108 | 3.0 | 6.0 | 0.00 | 0.00 | 0.00 | 34 | 1005.6 |
| 20260505011458 | 82 | 175 | 3.0 | 6.0 | 0.00 | 0.00 | 0.00 | 33 | 1005.6 |
| 20260505011005 | 81 | 165 | 3.0 | 7.0 | 0.00 | 0.00 | 0.00 | 32 | 1005.6 |
| 20260505010458 | 82 | 209 | 3.0 | 7.0 | 0.00 | 0.00 | 0.00 | 33 | 1005.6 |
| 20260505010006 | 82 | 119 | 3.0 | 7.0 | 0.00 | 0.00 | 0.00 | 34 | 1005.7 |
| 20260505005459 | 82 | 138 | 3.0 | 7.0 | 0.00 | 0.00 | 0.00 | 32 | 1005.7 |
| 20260505005004 | 82 | 132 | 4.0 | 5.0 | 0.00 | 0.00 | 0.00 | 31 | 1005.7 |
| 20260505004458 | 82 | 196 | 2.0 | 6.0 | 0.00 | 0.00 | 0.00 | 36 | 1005.8 |
| 20260505003005 | 82 | 202 | 2.0 | 7.0 | 0.00 | 0.00 | 0.00 | 33 | 1005.9 |
| 20260505002459 | 82 | 132 | 4.0 | 7.0 | 0.00 | 0.00 | 0.00 | 32 | 1005.9 |
| 20260505002004 | 82 | 115 | 2.0 | 7.0 | 0.00 | 0.00 | 0.00 | 33 | 1006.0 |
| 20260505001458 | 83 | 126 | 3.0 | 8.0 | 0.00 | 0.00 | 0.00 | 31 | 1006.0 |
| 20260505001003 | 82 | 56 | 1.0 | 8.0 | 0.00 | 0.00 | 0.00 | 33 | 1006.0 |
| 20260505000458 | 82 | 89 | 5.0 | 8.0 | 0.00 | 0.00 | 0.00 | 32 | 1006.1 |
| 20260505000001 | 82 | 159 | 2.0 | 9.0 | 0.00 | 0.00 | 0.00 | 31 | 1006.0 |
| 20260504235002 | 82 | 166 | 1.0 | 7.0 | 0.00 | 0.00 | 0.00 | 32 | 1006.0 |
| 20260504234458 | 83 | 159 | 3.0 | 7.0 | 0.00 | 0.00 | 0.00 | 30 | 1006.0 |
| 20260504233000 | 83 | 190 | 1.0 | 4.0 | 0.00 | 0.00 | 0.00 | 30 | 1006.1 |
| 20260504231959 | 84 | 282 | 3.0 | 6.0 | 0.00 | 0.00 | 0.00 | 31 | 1006.1 |
| 20260504231457 | 84 | 240 | 4.0 | 8.0 | 0.00 | 0.00 | 0.00 | 31 | 1006.2 |
| 20260504230003 | 83 | 123 | 2.0 | 5.0 | 0.00 | 0.00 | 0.00 | 30 | 1006.4 |
| 20260504225458 | 83 | 198 | 3.0 | 9.0 | 0.00 | 0.00 | 0.00 | 29 | 1006.4 |
| 20260504224959 | 84 | 248 | 5.0 | 9.0 | 0.00 | 0.00 | 0.00 | 29 | 1006.4 |
| 20260504224458 | 84 | 217 | 3.0 | 8.0 | 0.00 | 0.00 | 0.00 | 31 | 1006.5 |
| 20260504223458 | 85 | 207 | 4.0 | 8.0 | 0.00 | 0.00 | 0.00 | 29 | 1006.6 |
| 20260504223001 | 84 | 116 | 2.0 | 9.0 | 0.00 | 0.00 | 0.00 | 28 | 1006.7 |
| 20260504222458 | 84 | 217 | 3.0 | 9.0 | 0.00 | 0.00 | 0.00 | 28 | 1006.7 |
| 20260504221959 | 84 | 217 | 4.0 | 7.0 | 0.00 | 0.00 | 0.00 | 30 | 1006.8 |
| 20260504221457 | 83 | 168 | 3.0 | 6.0 | 0.00 | 0.00 | 0.00 | 30 | 1006.8 |
| 20260504220958 | 83 | 137 | 3.0 | 6.0 | 0.00 | 0.00 | 0.00 | 30 | 1006.8 |
| 20260504220457 | 84 | 134 | 3.0 | 9.0 | 0.00 | 0.00 | 0.00 | 29 | 1006.9 |
| 20260504220003 | 83 | 133 | 4.0 | 9.0 | 0.00 | 0.00 | 0.00 | 33 | 1007.0 |
| 20260504215458 | 84 | 225 | 4.0 | 8.0 | 0.00 | 0.00 | 0.00 | 29 | 1007.1 |
| 20260504214458 | 82 | 184 | 2.0 | 5.0 | 0.00 | 0.00 | 0.00 | 31 | 1007.2 |
| 20260504214000 | 82 | 242 | 2.0 | 5.0 | 0.00 | 0.00 | 0.00 | 34 | 1007.2 |
| 20260504213457 | 82 | 130 | 1.0 | 6.0 | 0.00 | 0.00 | 0.00 | 35 | 1007.4 |
| 20260504213000 | 83 | 207 | 3.0 | 7.0 | 0.00 | 0.00 | 0.00 | 33 | 1007.3 |
| 20260504212458 | 83 | 169 | 5.0 | 7.0 | 0.00 | 0.00 | 0.00 | 34 | 1007.4 |
| 20260504212000 | 83 | 177 | 2.0 | 6.0 | 0.00 | 0.00 | 0.00 | 35 | 1007.5 |
| 20260504211457 | 82 | 194 | 4.0 | 6.0 | 0.00 | 0.00 | 0.00 | 36 | 1007.5 |
| 20260504210958 | 82 | 188 | 3.0 | 5.0 | 0.00 | 0.00 | 0.00 | 32 | 1007.5 |
| 20260504210457 | 81 | 9 | 2.0 | 4.0 | 0.00 | 0.00 | 0.00 | 34 | 1007.6 |
| 20260504205959 | 81 | 355 | 1.0 | 6.0 | 0.00 | 0.00 | 0.00 | 33 | 1007.7 |
| 20260504205000 | 82 | 209 | 3.0 | 7.0 | 0.00 | 0.00 | 0.00 | 37 | 1007.8 |
| 20260504204458 | 81 | 28 | 2.0 | 5.0 | 0.00 | 0.00 | 0.00 | 36 | 1007.8 |
| 20260504203959 | 82 | 242 | 1.0 | 5.0 | 0.00 | 0.00 | 0.00 | 33 | 1007.9 |
| 20260504203458 | 82 | 219 | 3.0 | 5.0 | 0.00 | 0.00 | 0.00 | 40 | 1007.9 |
| 20260504203000 | 81 | 268 | 1.0 | 6.0 | 0.00 | 0.00 | 0.00 | 39 | 1008.0 |
| 20260504202458 | 81 | 223 | 1.0 | 6.0 | 0.00 | 0.00 | 0.00 | 40 | 1008.0 |
| 20260504202000 | 80 | 260 | 3.0 | 9.0 | 0.00 | 0.00 | 0.00 | 42 | 1008.1 |
| 20260504201458 | 79 | 270 | 2.0 | 9.0 | 0.00 | 0.00 | 0.00 | 37 | 1008.2 |
| 20260504200458 | 80 | 259 | 3.0 | 8.0 | 0.00 | 0.00 | 0.00 | 44 | 1008.1 |
| 20260504200001 | 81 | 315 | 4.0 | 8.0 | 0.00 | 0.00 | 0.00 | 44 | 1008.1 |
| 20260504195459 | 81 | 243 | 3.0 | 8.0 | 0.00 | 0.00 | 0.00 | 42 | 1008.1 |
| 20260504194959 | 81 | 213 | 2.0 | 8.0 | 0.00 | 0.00 | 0.00 | 38 | 1008.2 |
| 20260504194457 | 80 | 237 | 2.0 | 6.0 | 0.00 | 0.00 | 0.00 | 40 | 1008.2 |
| 20260504193958 | 79 | 200 | 3.0 | 8.0 | 0.00 | 0.00 | 0.00 | 43 | 1008.3 |
| 20260504193457 | 80 | 247 | 5.0 | 8.0 | 0.00 | 0.00 | 0.00 | 40 | 1008.3 |
| 20260504192457 | 80 | 272 | 4.0 | 8.0 | 0.00 | 0.00 | 0.00 | 44 | 1008.3 |
| 20260504191959 | 79 | 243 | 1.0 | 10.0 | 0.00 | 0.00 | 0.00 | 45 | 1008.3 |
| 20260504191457 | 79 | 240 | 5.0 | 10.0 | 0.00 | 0.00 | 0.00 | 42 | 1008.3 |
| 20260504190958 | 79 | 263 | 5.0 | 8.0 | 0.00 | 0.00 | 0.00 | 46 | 1008.3 |
| 20260504190457 | 79 | 250 | 3.0 | 8.0 | 0.00 | 0.00 | 0.00 | 43 | 1008.3 |
| 20260504190002 | 78 | 221 | 3.0 | 8.0 | 0.00 | 0.00 | 0.00 | 43 | 1008.4 |
| 20260504184958 | 79 | 182 | 2.0 | 8.0 | 0.00 | 0.00 | 0.00 | 43 | 1008.5 |
| 20260504184458 | 78 | 203 | 4.0 | 7.0 | 0.00 | 0.00 | 0.00 | 37 | 1008.5 |
| 20260504183958 | 78 | 241 | 3.0 | 7.0 | 0.00 | 0.00 | 0.00 | 39 | 1008.5 |
| 20260504182958 | 77 | 246 | 4.0 | 9.0 | 0.00 | 0.00 | 0.00 | 39 | 1008.5 |
| 20260504182458 | 77 | 262 | 3.0 | 9.0 | 0.00 | 0.00 | 0.00 | 39 | 1008.5 |
| 20260504181458 | 76 | 192 | 5.0 | 9.0 | 0.00 | 0.00 | 0.00 | 39 | 1008.6 |
| 20260504180958 | 76 | 249 | 2.0 | 6.0 | 0.00 | 0.00 | 0.00 | 43 | 1008.7 |
| 20260504180459 | 75 | 244 | 4.0 | 8.0 | 0.00 | 0.00 | 0.00 | 43 | 1008.7 |
| 20260504175958 | 75 | 268 | 3.0 | 9.0 | 0.00 | 0.00 | 0.00 | 42 | 1008.8 |
| 20260504175457 | 75 | 186 | 5.0 | 9.0 | 0.00 | 0.00 | 0.00 | 42 | 1008.9 |
| 20260504174958 | 75 | 213 | 5.0 | 8.0 | 0.00 | 0.00 | 0.00 | 43 | 1008.8 |
| 20260504174457 | 74 | 269 | 1.0 | 6.0 | 0.00 | 0.00 | 0.00 | 43 | 1008.8 |
| 20260504173958 | 74 | 246 | 2.0 | 6.0 | 0.00 | 0.00 | 0.00 | 48 | 1008.8 |
| 20260504173457 | 73 | 265 | 3.0 | 7.0 | 0.00 | 0.00 | 0.00 | 46 | 1008.8 |
| 20260504172957 | 74 | 279 | 4.0 | 7.0 | 0.00 | 0.00 | 0.00 | 48 | 1008.8 |
| 20260504172458 | 73 | 269 | 4.0 | 8.0 | 0.00 | 0.00 | 0.00 | 48 | 1008.8 |
| 20260504171958 | 73 | 335 | 4.0 | 7.0 | 0.00 | 0.00 | 0.00 | 46 | 1008.7 |
| 20260504171458 | 73 | 247 | 4.0 | 7.0 | 0.00 | 0.00 | 0.00 | 47 | 1008.7 |
| 20260504170958 | 73 | 253 | 4.0 | 7.0 | 0.00 | 0.00 | 0.00 | 48 | 1008.7 |
| 20260504170458 | 72 | 323 | 5.0 | 7.0 | 0.00 | 0.00 | 0.00 | 48 | 1008.7 |
| 20260504150958 | 65 | 169 | 1.0 | 2.0 | 0.00 | 0.00 | 0.00 | 56 | 1008.6 |
| 20260504150457 | 63 | 169 | 1.0 | 2.0 | 0.00 | 0.00 | 0.00 | 60 | 1008.6 |
| 20260504140958 | 56 | 44 | 0.0 | 1.0 | 0.00 | 0.00 | 0.00 | 75 | 1008.4 |
| 20260504140457 | 55 | 44 | 0.0 | 1.0 | 0.00 | 0.00 | 0.00 | 77 | 1008.3 |
| 20260504130455 | 50 | 57 | 0.0 | 2.0 | 0.00 | 0.00 | 0.00 | 78 | 1007.7 |
| 20260504110455 | 51 | 93 | 2.0 | 5.0 | 0.00 | 0.00 | 0.00 | 75 | 1008.1 |
| 20260504100457 | 52 | 80 | 4.0 | 5.0 | 0.00 | 0.00 | 0.00 | 76 | 1008.2 |